Regional Weather Roundup
Issued by NWS Newport/Morehead, NC

Current Version | Previous Version | Graphics & Text | Print | Product List | Glossary Off
Versions: 1 2 3 4 5 6 7 8 9 10 11 12 13 14 15 16 17 18 19 20 21 22 23 24 25 26 27 28 29 30 31 32 33 34 35 36 37 38 39 40 41 42 43 44 45 46 47 48 49 50
000 ASUS42 KMHX 310225 RWRMHX WEATHER ROUNDUP FOR EASTERN NORTH CAROLINA NATIONAL WEATHER SERVICE NEWPORT/MOREHEAD CITY NC 1000 PM EDT SAT JUL 30 2016 NOTE: "FAIR" INDICATES FEW OR NO CLOUDS BELOW 12,000 FEET WITH NO SIGNIFICANT WEATHER AND/OR OBSTRUCTIONS TO VISIBILITY NCZ015>017-031-032-045>047-102-103-310300- NORTH COAST CITY SKY/WX TMP DP RH WIND PRES REMARKS EDENTON CLOUDY 79 76 90 CALM 29.97R ELIZABETH CITY CLOUDY 76 74 93 CALM 29.96R KITTY HAWK CLOUDY 77 77 100 SE3 29.96R MANTEO CLOUDY 83 83 98 SW20 29.97R HX 100 $$ NCZ045>047-081-094-103-104-310300- CENTRAL COAST CITY SKY/WX TMP DP RH WIND PRES REMARKS FRISCO CLOUDY 82 80 94 S9 29.99R $$ NCZ095-097-098-100-101-310300- SOUTHERN COAST CITY SKY/WX TMP DP RH WIND PRES REMARKS BEAUFORT PTCLDY 84 82 94 SW12 29.99R HX 100 CEDAR ISLAND NOT AVBL JACKSONVILLE PTCLDY 83 77 82 S7 29.98R PINEY ISLAND NOT AVBL WILMINGTON CLEAR 85 75 72 SW9 30.00R $$ NCZ011>013-027>030-043-044-078>080-089-090>093-098-310300- COASTAL PLAIN CITY SKY/WX TMP DP RH WIND PRES REMARKS AHOSKIE MOCLDY 73 73 99 CALM 29.98R FOG CLINTON CLOUDY 82 74 78 W5 30.01R ELIZABETHTOWN LGT RAIN 78 76 92 SW5 30.01S GOLDSBORO CLOUDY 83 77 83 NE5 29.98R GREENVILLE PTCLDY 77 77 100 W6 30.03R HAVELOCK PTCLDY 83 78 85 SW12 29.99R KENANSVILLE NOT AVBL KINSTON NOT AVBL NEW BERN PTCLDY 82 77 84 S7 29.99R RICHLANDS PTCLDY 83 76 79 S8 29.99R ROCKY MOUNT CLOUDY 76 75 97 VRB5 30.00R WASHINGTON PTCLDY 75 74 96 SE3 29.98R WHITEVILLE CLOUDY 82 73 74 SW6 30.04R $$ AMZ130-135-150-152-154-156-158-170-250-252-270-ANZ085-086-088-633-658-670-310300- MARINE OBSERVATIONS STATION/POSITION TIME TEMP WIND PRES WAVE SWELL AIR SEA DIR/SP/G HT/PER HT/PER (UTC) (F) (DEG/KT/KT) (MB) (FT/S) (FT/S) CHESAPEAKE LIGHT NOT AVBL 64 E VA BEACH 0150 81 82 200/ 2/ 4 1015.1 3/ 4 2/ 4 DUCK 0100 74 160/ 6/ 7 1013.5 2 E DUCK 0211 80 N/A 2/13 OREGON INLET 0100 81 140/ 7/ 11 1014.5 13E OREGON INLT 0200 78 N/A 2/ 6 2/ 6 HATTERAS CG 0100 83 170/ 6/ 9 1014.7 DIAMOND BUOY 0150 85 85 200/ 19/ 21 1015.4 3/ 6 2/ 8 CAPE LOOKOUT 0200 84 200/ 10/ 13 1015.5 BEAUFORT LAB 0100 83 210/ 7/ 12 1014.3 30 SE NEW RVR IN 0208 85 85 210/ 14/ 17 1015.9 30 SE NEW RVR IN 0125 85 N/A 4/ 4 27 SE WRIGHTSVLE 0208 85 85 210/ 14/ 19 1016.2 5 SE WRIGHTSVLE 0208 83 81 230/ 12/ 16 1016.9 225 S CAPE HAT 0150 85 85 170/ 14/ 16 1018.7 2/ 9 2/ 9 41 SE CHARLESTON 0150 86 86 200/ 16/ 19 1016.2 3/ 5 2/ 8 $$

USA.gov is the U.S. government's official web portal to all federal, state and local government web resources and services.